This is the latest recevied weather packets stored in our database for station/object N3TJJ-2. If no packets are shown the sender has not sent any weather packets the latest 10 day(s).
| Time | Temp. | Humidity | Pressure | Rain* | Wind** | Luminosity | Snow |
|---|---|---|---|---|---|---|---|
| 1778084957 | 15.56° C | 28% | 1009.4 hPa | 0.51 mm | - | - | - |
| 1778084597 | 15.56° C | 28% | 1009.3 hPa | 0.51 mm | - | - | - |
| 1778084242 | 15.56° C | 28% | 1009.4 hPa | 0.76 mm | - | - | - |
| 1778083877 | 15.56° C | 27% | 1009.3 hPa | 0.76 mm | - | - | - |
| 1778083518 | 15.56° C | 28% | 1009 hPa | 1.02 mm | - | - | - |
| 1778083177 | 15.56° C | 28% | 1008.8 hPa | 1.27 mm | - | - | - |
| 1778082802 | 15.56° C | 28% | 1008.7 hPa | 1.27 mm | - | - | - |
| 1778082441 | 15.56° C | 28% | 1009 hPa | 1.52 mm | - | - | - |
| 1778082082 | 15.56° C | 28% | 1009.4 hPa | 1.52 mm | - | - | - |
| 1778081727 | 15.56° C | 28% | 1009.8 hPa | 1.78 mm | - | - | - |
| 1778081357 | 15.56° C | 29% | 1009.9 hPa | 1.78 mm | - | - | - |
| 1778080997 | 15° C | 29% | 1010.1 hPa | 2.03 mm | - | - | - |
| 1778080651 | 15° C | 29% | 1010.1 hPa | 1.78 mm | - | - | - |
| 1778080289 | 15° C | 29% | 1010.2 hPa | 2.03 mm | - | - | - |
| 1778079919 | 15° C | 29% | 1010.1 hPa | 1.78 mm | - | - | - |
| 1778079559 | 15° C | 30% | 1010.3 hPa | 1.78 mm | - | - | - |
| 1778079201 | 15° C | 30% | 1010.3 hPa | 1.78 mm | - | - | - |
| 1778078846 | 15° C | 30% | 1010.1 hPa | 1.52 mm | - | - | - |
| 1778078477 | 15° C | 30% | 1010.1 hPa | 1.52 mm | - | - | - |
| 1778078124 | 15° C | 30% | 1009.9 hPa | 1.52 mm | - | - | - |
| 1778077759 | 15° C | 31% | 1010 hPa | 1.52 mm | - | - | - |
| 1778077397 | 15° C | 31% | 1010 hPa | 1.52 mm | - | - | - |
| 1778077082 | 15° C | 31% | 1010.1 hPa | 1.52 mm | - | - | - |
| 1778076676 | 15° C | 32% | 1010 hPa | 1.27 mm | - | - | - |
| 1778076320 | 15° C | 32% | 1010.1 hPa | 1.27 mm | - | - | - |
* Rain latest hour (hover to see other rain measurements)
** Current wind speed in m/s (hover to see current wind gust speed)